Location: Marsån
(66.4167°N, 22.2833°E)
Time: 10:18:10
(UTC+00:00)

Cosmos 1092 Rocket - Pass Details

Date: 24 February 2024
Orbit: 953 x 995 km, 82.9° (Epoch: 15 April)

Event Time Altitude Azimuth Distance (km) Brightness Sun altitude
Rises 16:52:06 0° 338° (NNW) 3,697 7.3 -9.5°
Reaches altitude 10° 16:54:42 10° 342° (NNW) 2,740 6.6 -9.7°
Maximum altitude 17:00:52 56° 61° (ENE) 1,146 4.1 -10.3°
Drops below altitude 10° 17:06:57 10° 140° (SE) 2,700 5.9 -10.9°
Sets 17:09:30 0° 144° (SE) 3,639 6.6 -11.2°
